WS Maaseik 1 Meer informatie WS Maaseik 1


WS Maaseik 2 Meer informatie WS Maaseik 2


Regen radar Meer informatie rain snow radar


Bezoek onze andere website:

Vorige versie
weerstation Maaseik


Bezoek ook eens deze sites:

Weerstation Geleen



Het weer levert geen direct gevaar op.    Er zijn geen waarschuwingen afgegeven.

15 daagse weersverwachting Ennis (IE)

  • Overzicht
  • Per uur
  • 15 dagen
  • Extra
  • Vergelijk
  • Kaarten
  • Dagkaart
  • Meer »
  • Info
  • Statistieken
  • Directe link
    Temp 6h Neerslag Wind  
 06:04     21:21    Daglengte: 15:17 Vandaag
13:00
17°
3.1 mm
4
19:00
17°
12.5 mm
4
 06:05     21:19    Daglengte: 15:14 Morgen
01:00
15°
8.9 mm
8
07:00
14°
5.1 mm
8
13:00
15°
 
9
19:00
15°
8.3 mm
8
 06:07     21:17    Daglengte: 15:10 Zaterdag 07 Aug
01:00
15°
17.4 mm
5
07:00
15°
6.9 mm
7
13:00
16°
23.2 mm
10
19:00
14°
31.5 mm
8
 06:09     21:15    Daglengte: 15:06 Zondag 08 Aug
01:00
13°
23.9 mm
7
07:00
14°
24.4 mm
6
Locatie info
Region: Clare
Latitude: 52.8469°N
Longitude: -8.9882°E
5 masl
Postcode: -1
Temp/Neerslag /Baro Onweer/Dauwpunt
    Temp Baro 1h Neerslag Dauwpunt Wind UV Bewolking  
 06:04     21:21    Daglengte: 15:17 Vandaag
13:00
17°
991.9 hPa 3.1 mm
48%
14.9°
4
Windvlaag: 4.1 m/s
72%
14:00
18°
991.6 hPa 2.1 mm
82%
15.0°
4
Windvlaag: 5.1 m/s
58% warningclass
15:00
18°
991.6 hPa 1.9 mm
82%
15.3°
4
Windvlaag: 5.4 m/s
68%
16:00
17°
991.2 hPa 2.1 mm
82%
15.3°
4
Windvlaag: 2.9 m/s
45%
17:00
18°
991.1 hPa 2.3 mm
82%
15.7°
4
Windvlaag: 3.3 m/s
67%
18:00
17°
990.9 hPa 2.1 mm
82%
15.1°
4
Windvlaag: 3.8 m/s
40%
19:00
17°
991.0 hPa 2.1 mm
82%
14.4°
4
Windvlaag: 1.6 m/s
58%
20:00
16°
991.2 hPa 2.0 mm
81%
14.1°
4
Windvlaag: 1.7 m/s
51%
21:00
16°
991.8 hPa
82%
14.4°
4
Windvlaag: 3.4 m/s
62%
22:00
16°
992.5 hPa 2.1 mm
82%
14.0°
5
Windvlaag: 2.7 m/s
71%
23:00
15°
992.8 hPa 2.3 mm
82%
14.1°
7
Windvlaag: -0.2 m/s
75%
 06:05     21:19    Daglengte: 15:14 Morgen
00:00
15°
993.3 hPa 2.4 mm
82%
13.8°
8
Windvlaag: -2.2 m/s
82%
01:00
15°
993.7 hPa
82%
13.4°
8
Windvlaag: -1.2 m/s
69%
02:00
15°
994.3 hPa
82%
12.9°
8
Windvlaag: -0.9 m/s
68%
03:00
15°
994.5 hPa 2.8 mm
82%
12.6°
8
Windvlaag: -0.7 m/s
71%
04:00
15°
994.7 hPa 2.3 mm
82%
12.5°
8
Windvlaag: 1 m/s
79%
05:00
14°
994.7 hPa
82%
12.2°
8
Windvlaag: 1.1 m/s
76%
06:00
14°
994.9 hPa
82%
12.0°
8
Windvlaag: 1.7 m/s
68%
07:00
14°
995.3 hPa
81%
12.1°
8
Windvlaag: 1.6 m/s
66%
08:00
15°
995.3 hPa
76%
12.0°
8
Windvlaag: 1.8 m/s
57%
09:00
15°
995.6 hPa
25%
11.9°
8
Windvlaag: 2.4 m/s
59%
10:00
15°
995.7 hPa
30%
12.2°
8
Windvlaag: 4.7 m/s
55%
11:00
15°
995.8 hPa
71%
13.0°
8
Windvlaag: 5.2 m/s
58%
12:00
15°
995.7 hPa
82%
13.1°
9
Windvlaag: 6.6 m/s
80%
13:00
15°
995.6 hPa
82%
13.4°
9
Windvlaag: 7.9 m/s
83%
14:00
15°
995.5 hPa 2.5 mm
81%
13.2°
9
Windvlaag: 7.5 m/s
84%
15:00
15°
995.3 hPa
79%
13.1°
8
Windvlaag: 7.2 m/s
84%
16:00
15°
995.0 hPa
78%
12.9°
9
Windvlaag: 5.3 m/s
86%
17:00
15°
994.6 hPa
76%
12.8°
9
Windvlaag: 5 m/s
86%
18:00
15°
994.1 hPa 2.8 mm
78%
13.0°
8
Windvlaag: 5.1 m/s
74%
19:00
15°
993.7 hPa 3.0 mm
82%
12.9°
8
Windvlaag: 5.1 m/s
83%
20:00
15°
993.3 hPa 3.0 mm
82%
13.4°
6
Windvlaag: 4.8 m/s
86%
21:00
15°
993.2 hPa 3.4 mm
82%
13.7°
6
Windvlaag: 1.7 m/s
86%
22:00
15°
993.6 hPa 3.2 mm
82%
13.7°
6
Windvlaag: -2 m/s
86%
23:00
15°
993.8 hPa 3.4 mm
82%
13.7°
6
Windvlaag: -3.7 m/s
86%
 06:07     21:17    Daglengte: 15:10 Zaterdag 07 Aug
00:00
15°
994.0 hPa 4.3 mm
82%
13.6°
5
Windvlaag: -3.9 m/s
83%
01:00
15°
994.1 hPa
82%
13.7°
5
Windvlaag: -2.8 m/s
81%
02:00
15°
994.2 hPa
46%
13.5°
5
Windvlaag: -3.6 m/s
83%
03:00
14°
994.2 hPa
82%
13.0°
6
Windvlaag: -4.9 m/s
70%
04:00
14°
994.3 hPa 3.4 mm
82%
12.9°
6
Windvlaag: -5.1 m/s
82%
05:00
14°
994.4 hPa 3.5 mm
82%
12.9°
6
Windvlaag: -4.9 m/s
72%
06:00
15°
994.6 hPa
82%
12.7°
7
Windvlaag: -5.3 m/s
59%
07:00
15°
995.0 hPa
82%
12.8°
7
Windvlaag: -5.3 m/s
73%
08:00
15°
995.4 hPa 3.3 mm
82%
13.0°
7
Windvlaag: -4.7 m/s
59%
09:00
15°
995.7 hPa 3.3 mm
82%
12.9°
7
Windvlaag: -3 m/s
71%
10:00
15°
995.7 hPa 3.6 mm
100%
13.2°
8
Windvlaag: -1.3 m/s
99%
11:00
15°
995.7 hPa 3.6 mm
100%
13.4°
9
Windvlaag: -1 m/s
92%
12:00
15°
996.0 hPa 5.7 mm
100%
13.5°
9
Windvlaag: -0.5 m/s
91%
13:00
16°
996.2 hPa 3.7 mm
100%
13.1°
10
Windvlaag: -0.5 m/s
99%
14:00
16°
996.5 hPa 6.1 mm
99%
13.0°
10
Windvlaag: -0.7 m/s
96%
15:00
15°
997.1 hPa 6.6 mm
97%
13.0°
9
Windvlaag: -2.6 m/s
97%
16:00
14°
997.7 hPa 4.1 mm
100%
12.8°
9
Windvlaag: -3.2 m/s
99%
17:00
14°
998.1 hPa 6.5 mm
100%
12.6°
9
Windvlaag: -2.1 m/s
96%
18:00
14°
998.5 hPa 4.1 mm
100%
12.6°
9
Windvlaag: -1.6 m/s
99%
19:00
14°
999.2 hPa 4.1 mm
100%
12.4°
8
Windvlaag: -1.9 m/s
85%
20:00
14°
999.5 hPa 4.0 mm
100%
11.8°
9
Windvlaag: -1.7 m/s
92%
21:00
14°
999.9 hPa 6.8 mm
100%
11.9°
8
Windvlaag: -0.9 m/s
87%
22:00
14°
1000.7 hPa
100%
11.8°
8
Windvlaag: -0.8 m/s
74%
23:00
13°
1001.1 hPa 6.6 mm
99%
11.6°
7
Windvlaag: -0.3 m/s
73%
 06:09     21:15    Daglengte: 15:06 Zondag 08 Aug
00:00
13°
1001.4 hPa 6.5 mm
97%
11.6°
7
Windvlaag: 0.5 m/s
84%
01:00
13°
1001.5 hPa
95%
11.5°
7
Windvlaag: -0.4 m/s
80%
02:00
13°
1001.6 hPa 6.7 mm
100%
11.4°
7
Windvlaag: 0.3 m/s
82%
03:00
13°
1001.7 hPa 6.8 mm
100%
11.3°
6
Windvlaag: 0.5 m/s
81%
04:00
13°
1001.9 hPa 6.7 mm
100%
11.5°
6
Windvlaag: 0.5 m/s
88%
05:00
13°
1001.8 hPa 6.8 mm
100%
12.0°
6
Windvlaag: 0.8 m/s
98%
06:00
14°
1001.8 hPa 4.1 mm
100%
12.4°
6
Windvlaag: 2.2 m/s
82%
07:00
14°
1002.1 hPa 6.8 mm
100%
12.7°
6
Windvlaag: 0.4 m/s
83%
Temp/Neerslag /Baro Onweer/Dauwpunt
    Temp Baro Neerslag Dauwpunt Wind Bewolking  
 06:04     21:21    Daglengte: 15:17 Vandaag
13:00
17°
991.9 hPa 3.1 mm 14.9°
4
72%
16:00
17°
991.2 hPa 6.0 mm 15.3°
4
45%
19:00
17°
991.0 hPa 6.5 mm 14.4°
4
58%
22:00
16°
992.5 hPa 4.2 mm 14.0°
5
71%
 06:05     21:19    Daglengte: 15:14 Morgen
01:00
15°
993.7 hPa 4.8 mm 13.4°
8
69%
04:00
15°
994.7 hPa 5.1 mm 12.5°
8
79%
07:00
14°
995.3 hPa   12.1°
8
66%
10:00
15°
995.7 hPa   12.2°
8
55%
13:00
15°
995.6 hPa   13.4°
9
83%
16:00
15°
995.0 hPa 2.5 mm 12.9°
9
86%
19:00
15°
993.7 hPa 5.8 mm 12.9°
8
83%
22:00
15°
993.6 hPa 9.7 mm 13.7°
6
86%
 06:07     21:17    Daglengte: 15:10 Zaterdag 07 Aug
01:00
15°
994.1 hPa 7.7 mm 13.7°
5
81%
04:00
14°
994.3 hPa 3.4 mm 12.9°
6
82%
07:00
15°
995.0 hPa 3.5 mm 12.8°
7
73%
10:00
15°
995.7 hPa 10.2 mm 13.2°
8
99%
13:00
16°
996.2 hPa 13.0 mm 13.1°
10
99%
16:00
14°
997.7 hPa 16.8 mm 12.8°
9
99%
19:00
14°
999.2 hPa 14.7 mm 12.4°
8
85%
22:00
14°
1000.7 hPa 10.8 mm 11.8°
8
74%
 06:09     21:15    Daglengte: 15:06 Zondag 08 Aug
01:00
13°
1001.5 hPa 13.1 mm 11.5°
7
80%
04:00
13°
1001.9 hPa 20.2 mm 11.5°
6
88%
07:00
14°
1002.1 hPa 12.3 mm 12.7°
6
83%
10:00
15°
1003.3 hPa 5.7 mm 12.0°
7
71%
13:00
16°
1004.3 hPa   9.5°
7
0%
16:00
18°
1007.7 hPa 26.7 mm 11.2°
5
0%
19:00
17°
1008.7 hPa 26.9 mm 13.0°
5
1%
22:00
13°
1010.6 hPa 27.1 mm 12.8°
3
1%
 06:10     21:13    Daglengte: 15:03 Maandag 09 Aug
01:00
13°
1011.8 hPa 27.2 mm 12.5°
2
1%
04:00
14°
1012.2 hPa 27.2 mm 13.2°
3
1%
07:00
15°
1012.8 hPa 27.2 mm 13.9°
4
1%
10:00
17°
1014.2 hPa 27.5 mm 14.0°
5
1%
13:00
19°
1015.2 hPa 27.6 mm 13.4°
7
1%
16:00
19°
1015.7 hPa 27.8 mm 14.1°
6
1%
19:00
17°
1016.1 hPa 27.8 mm 14.4°
5
1%
22:00
15°
1016.6 hPa 27.8 mm 14.3°
3
1%
 06:12     21:11    Daglengte: 14:59 Dinsdag 10 Aug
01:00
14°
1016.3 hPa 27.8 mm 13.5°
3
1%
04:00
15°
1015.6 hPa 27.8 mm 12.8°
3
1%
07:00
15°
1014.5 hPa 27.8 mm 12.8°
4
1%
10:00
18°
1014.1 hPa 28.2 mm 14.5°
5
1%
13:00
21°
1012.8 hPa 28.5 mm 13.9°
5
1%
16:00
20°
1012.0 hPa 28.6 mm 14.5°
6
1%
19:00
14°
1012.8 hPa 33.6 mm 13.5°
4
1%
22:00
12°
1015.2 hPa 33.7 mm 10.7°
3
0%
 06:14     21:09    Daglengte: 14:55 Woensdag 11 Aug
01:00
11°
1016.0 hPa 33.7 mm 9.9°
3
1%
04:00
11°
1016.4 hPa 33.8 mm 9.9°
2
0%
07:00
10°
1017.5 hPa 33.9 mm 9.6°
2
0%
10:00
15°
1018.6 hPa 34.0 mm 11.1°
4
1%
13:00
17°
1019.4 hPa 34.1 mm 8.2°
6
1%
16:00
18°
1019.9 hPa 34.1 mm 8.8°
6
0%
19:00
16°
1020.9 hPa 34.2 mm 10.1°
5
0%
22:00
14°
1022.0 hPa 34.2 mm 10.7°
3
0%
 06:15     21:07    Daglengte: 14:52 Donderdag 12 Aug
01:00
12°
1022.0 hPa 34.2 mm 10.8°
3
1%
04:00
11°
1022.0 hPa 34.2 mm 10.1°
2
1%
07:00
11°
1022.1 hPa 34.2 mm 10.2°
2
1%
10:00
17°
1022.0 hPa   12.2°
4
1%
13:00
21°
1021.6 hPa 68.3 mm 11.7°
5
0%
19:00
20°
1020.1 hPa 68.3 mm 12.7°
4
0%
 06:17     21:05    Daglengte: 14:48 Vrijdag 13 Aug
01:00
12°
1020.2 hPa 68.3 mm 12.0°
2
1%
07:00
12°
1017.7 hPa 68.3 mm 11.5°
3
1%
13:00
21°
1015.8 hPa 68.3 mm 9.9°
6
1%
19:00
18°
1012.6 hPa 68.5 mm 11.4°
5
0%
 06:19     21:03    Daglengte: 14:44 Zaterdag 14 Aug
01:00
15°
1013.4 hPa 71.9 mm 13.9°
2
1%
07:00
11°
1013.5 hPa 72.8 mm 10.2°
2
1%
13:00
17°
1012.6 hPa 74.2 mm 11.1°
7
0%
19:00
16°
1012.1 hPa 76.6 mm 11.0°
6
0%
 06:20     21:01    Daglengte: 14:41 Zondag 15 Aug
01:00
12°
1012.0 hPa 77.3 mm 10.7°
3
0%
07:00
13°
1012.9 hPa 0.4 mm 12.0°
2
66%
13:00
18°
1012.7 hPa 1.1 mm 12.8°
3
76%
19:00
17°
1012.1 hPa 1.2 mm 13.3°
4
75%
 06:22     20:59    Daglengte: 14:37 Maandag 16 Aug
01:00
14°
1012.6 hPa 0.5 mm 12.7°
3
68%
07:00
14°
1011.8 hPa 0.3 mm 12.6°
2
77%
13:00
18°
1012.9 hPa 1.3 mm 14.0°
4
78%
19:00
17°
1013.6 hPa 0.5 mm 13.3°
4
70%
 06:24     20:57    Daglengte: 14:33 Dinsdag 17 Aug
01:00
14°
1014.3 hPa 0.7 mm 12.7°
2
62%
07:00
13°
1014.0 hPa 1.0 mm 12.5°
2
73%
13:00
18°
1014.8 hPa 0.9 mm 13.8°
4
79%
19:00
17°
1014.7 hPa 1.1 mm 13.9°
4
76%
 06:25     20:55    Daglengte: 14:30 Woensdag 18 Aug
01:00
14°
1015.7 hPa 0.5 mm 12.8°
2
69%
07:00
14°
1015.3 hPa 0.5 mm 12.6°
2
75%
13:00
18°
1016.1 hPa 0.5 mm 13.9°
3
74%
19:00
17°
1016.1 hPa 1.2 mm 13.7°
3
69%
 06:27     20:53    Daglengte: 14:26 Donderdag 19 Aug
01:00
14°
1016.8 hPa 0.4 mm 12.3°
2
61%
07:00
13°
1015.9 hPa 0.4 mm 12.0°
1
65%
13:00
18°
1015.9 hPa 0.6 mm 13.9°
2
75%
19:00
17°
1015.4 hPa 1.1 mm 14.0°
2
75%
 06:29     20:50    Daglengte: 14:21 Vrijdag 20 Aug
01:00
14°
1016.0 hPa 0.6 mm 12.6°
1
66%
07:00
13°
1015.6 hPa 0.3 mm 12.0°
1
63%
  CAPE Lifted Index Hail Supercell Tornado SRH 3km CL BTM PRES CL TOP PRES Swiss DWD icon SMHI TS
 06:04     21:21    Daglengte: 15:17 Vandaag
13:00 405 J/kg -1.7 K 0 % 0 % 0 % 0 m²/s² 0 0 -0.47 3
14:00 400 J/kg -1.5 K 0 % 0 % 0 % 0 m²/s² 0 0 -0.27 95
15:00 376 J/kg -1.3 K 0 % 0 % 0 % 0 m²/s² 0 0 -0.22 80
16:00 476 J/kg -1.6 K 0 % 0 % 0 % 0 m²/s² 0 0 -1.03 80
17:00 542 J/kg -1.8 K 0 % 0 % 0 % 0 m²/s² 0 0 -0.96 80
18:00 498 J/kg -1.6 K 0 % 0 % 0 % 0 m²/s² 0 0 -0.82 80
19:00 408 J/kg -1.0 K 0 % 0 % 0 % 0 m²/s² 0 0 -0.4 80
20:00 187 J/kg -0.3 K 0 % 0 % 0 % 0 m²/s² 0 0 0.48 3
21:00 58 J/kg 1.0 K 0 % 0 % 0 % 0 m²/s² 0 0 2.02 3
22:00 83 J/kg 0.9 K 0 % 0 % 0 % 0 m²/s² 0 0 1.68 80
23:00 137 J/kg 0.3 K 0 % 0 % 0 % 0 m²/s² 0 0 0.96 80
 06:05     21:19    Daglengte: 15:14 Morgen
00:00 42 J/kg 1.1 K 0 % 0 % 0 % 0 m²/s² 0 0 1.58 61
01:00 45 J/kg 0.9 K 0 % 0 % 0 % 0 m²/s² 0 0 1.5 3
02:00 46 J/kg 1.4 K 0 % 0 % 0 % 0 m²/s² 0 0 1.91 3
03:00 53 J/kg 1.6 K 0 % 0 % 0 % 0 m²/s² 0 0 1.99 61
04:00 61 J/kg 1.6 K 0 % 0 % 0 % 0 m²/s² 0 0 1.72 61
05:00 85 J/kg 1.3 K 0 % 0 % 0 % 0 m²/s² 0 0 1.48 3
06:00 112 J/kg 1.0 K 0 % 0 % 0 % 0 m²/s² 0 0 1.21 61
07:00 153 J/kg 0.7 K 0 % 0 % 0 % 0 m²/s² 0 0 0.91 61
08:00 150 J/kg 0.8 K 0 % 0 % 0 % 0 m²/s² 0 0 1.04 3
09:00 143 J/kg 1.0 K 0 % 0 % 0 % 0 m²/s² 0 0 1.21 3
10:00 156 J/kg 0.5 K 0 % 0 % 0 % 0 m²/s² 0 0 0.71 3
11:00 234 J/kg -0.1 K 0 % 0 % 0 % 0 m²/s² 0 0 0.11 3
12:00 228 J/kg -0.3 K 0 % 0 % 0 % 0 m²/s² 0 0 -0.09 3
13:00 165 J/kg -0.1 K 0 % 0 % 0 % 0 m²/s² 0 0 0.2 3
14:00 150 J/kg 0.0 K 0 % 0 % 0 % 0 m²/s² 0 0 0.21 3
15:00 200 J/kg -0.2 K 0 % 0 % 0 % 0 m²/s² 0 0 0.04 3
16:00 228 J/kg -0.3 K 0 % 0 % 0 % 0 m²/s² 0 0 0 3
17:00 104 J/kg 0.6 K 0 % 0 % 0 % 0 m²/s² 0 0 0.93 61
18:00 97 J/kg 0.6 K 0 % 0 % 0 % 0 m²/s² 0 0 0.9 61
19:00 92 J/kg 0.5 K 0 % 0 % 0 % 0 m²/s² 0 0 0.92 61
20:00 90 J/kg 0.5 K 0 % 0 % 0 % 0 m²/s² 0 0 0.83 80
21:00 44 J/kg 0.2 K 0 % 0 % 0 % 0 m²/s² 0 0 0.32 80
22:00 68 J/kg 0.2 K 0 % 0 % 0 % 0 m²/s² 0 0 0.62 80
23:00 126 J/kg -0.5 K 0 % 0 % 0 % 0 m²/s² 0 0 0.01 80
 06:07     21:17    Daglengte: 15:10 Zaterdag 07 Aug
00:00 70 J/kg -0.1 K 0 % 0 % 0 % 0 m²/s² 0 0 0.08 61
01:00 104 J/kg -0.1 K 0 % 0 % 0 % 0 m²/s² 0 0 0.08 61
02:00 45 J/kg 0.6 K 0 % 0 % 0 % 0 m²/s² 0 0 0.9 3
03:00 24 J/kg 0.9 K 0 % 0 % 0 % 0 m²/s² 0 0 1.11 3
04:00 40 J/kg 0.9 K 0 % 0 % 0 % 0 m²/s² 0 0 1.2 80
05:00 44 J/kg 1.0 K 0 % 0 % 0 % 0 m²/s² 0 0 1.18 80
06:00 34 J/kg 1.2 K 0 % 0 % 0 % 0 m²/s² 0 0 1.5 3
07:00 47 J/kg 1.6 K 0 % 0 % 0 % 0 m²/s² 0 0 2.38 80
08:00 45 J/kg 1.3 K 0 % 0 % 0 % 0 m²/s² 0 0 2.32 80
09:00 102 J/kg 0.6 K 0 % 0 % 0 % 0 m²/s² 0 0 1.29 80
10:00 78 J/kg 0.9 K 0 % 0 % 0 % 0 m²/s² 0 0 1.2 80
11:00 154 J/kg 0.3 K 0 % 0 % 0 % 0 m²/s² 0 0 0.81 80
12:00 130 J/kg 0.3 K 0 % 0 % 0 % 0 m²/s² 0 0 0.69 3
13:00 142 J/kg 0.5 K 0 % 0 % 0 % 0 m²/s² 0 0 0.83 80
14:00 120 J/kg 0.8 K 0 % 0 % 0 % 0 m²/s² 0 0 1.04 3
15:00 56 J/kg 1.5 K 0 % 0 % 0 % 0 m²/s² 0 0 1.62 3
16:00 45 J/kg 1.8 K 0 % 0 % 0 % 0 m²/s² 0 0 1.92 61
17:00 49 J/kg 2.3 K 0 % 0 % 0 % 0 m²/s² 0 0 2.72 3
18:00 67 J/kg 2.4 K 0 % 0 % 0 % 0 m²/s² 0 0 2.73 61
19:00 69 J/kg 2.7 K 0 % 0 % 0 % 0 m²/s² 0 0 3.12 61
20:00 44 J/kg 3.4 K 0 % 0 % 0 % 0 m²/s² 0 0 3.94 61
21:00 44 J/kg 3.8 K 0 % 0 % 0 % 0 m²/s² 0 0 4.82 61
22:00 47 J/kg 3.7 K 0 % 0 % 0 % 0 m²/s² 0 0 4.57 3
23:00 37 J/kg 4.1 K 0 % 0 % 0 % 0 m²/s² 0 0 4.52 61
 06:09     21:15    Daglengte: 15:06 Zondag 08 Aug
00:00 34 J/kg 4.3 K 0 % 0 % 0 % 0 m²/s² 0 0 4.51 61
01:00 20 J/kg 4.4 K 0 % 0 % 0 % 0 m²/s² 0 0 4.64 3
02:00 24 J/kg 4.2 K 0 % 0 % 0 % 0 m²/s² 0 0 4.83 61
03:00 36 J/kg 3.9 K 0 % 0 % 0 % 0 m²/s² 0 0 5.91 61
04:00 45 J/kg 3.2 K 0 % 0 % 0 % 0 m²/s² 0 0 6.77 61
05:00 52 J/kg 2.2 K 0 % 0 % 0 % 0 m²/s² 0 0 6.34 61
06:00 59 J/kg 1.4 K 0 % 0 % 0 % 0 m²/s² 0 0 5.66 61
07:00 83 J/kg 0.9 K 0 % 0 % 0 % 0 m²/s² 0 0 4.95 61
Temp Baro Wind Neerslag
  EWN Forecast EWN WRFDA DWD ICON FMI HIRLAM MET Norway GFS
 06:04     21:21    Daglengte: 15:17 Vandaag
13:00 17.3° 991.9 hPa 4.1 m/s 3.1 mm 18.6° 992.5 hPa 4.5 m/s 7.2 mm 18.1° 991.8 hPa 4.1 m/s 2.2 mm 17.3° 991.7 hPa 4.1 m/s 0.0 mm 19.0° 991.9 hPa 4.5 m/s
16:00 17.3° 991.2 hPa 4.4 m/s 6.0 mm 18.6° 992.0 hPa 5.6 m/s 23.7 mm 17.8° 991.1 hPa 4.4 m/s 2.0 mm 16.9° 990.7 hPa 4.3 m/s 0.0 mm 19.4° 991.3 hPa 5.6 m/s
19:00 16.7° 991.0 hPa 4.2 m/s 6.5 mm 17.8° 991.8 hPa 6.2 m/s 26.8 mm 16.8° 990.6 hPa 4.1 m/s 1.3 mm 16.3° 990.8 hPa 3.9 m/s 0.0 mm 17.2° 991.0 hPa 5.0 m/s
22:00 15.6° 992.5 hPa 5.1 m/s 4.2 mm 15.3° 993.5 hPa 4.7 m/s 27.7 mm 15.7° 992.1 hPa 5.1 m/s 0.6 mm 15.7° 992.4 hPa 8.0 m/s 0.0 mm 14.7° 992.8 hPa 5.3 m/s
 06:05     21:19    Daglengte: 15:14 Morgen
01:00 14.9° 993.7 hPa 8.0 m/s 4.8 mm 14.6° 994.0 hPa 5.3 m/s 28.5 mm 14.9° 993.3 hPa 8.0 m/s 1.2 mm 15.1° 993.7 hPa 10.2 m/s 0.0 mm 14.7° 993.8 hPa 6.6 m/s
04:00 14.6° 994.7 hPa 7.9 m/s 5.1 mm 14.3° 994.8 hPa 7.1 m/s 29.1 mm 14.6° 994.4 hPa 7.2 m/s 0.3 mm 14.8° 994.8 hPa 8.0 m/s 0.0 mm 14.0° 994.4 hPa 6.9 m/s
07:00 14.4° 995.3 hPa 7.8 m/s 0.0 mm 14.4° 995.2 hPa 7.0 m/s 30.3 mm 14.4° 995.3 hPa 7.4 m/s 0.3 mm 14.7° 995.3 hPa 7.8 m/s 0.0 mm 14.2° 994.6 hPa 7.3 m/s
10:00 15.2° 995.7 hPa 8.3 m/s 0.0 mm 15.3° 995.7 hPa 7.6 m/s 31.7 mm 15.5° 995.9 hPa 8.3 m/s 0.0 mm 15.2° 995.8 hPa 8.7 m/s 0.0 mm 15.3° 995.4 hPa 7.7 m/s
13:00 15.4° 995.6 hPa 8.8 m/s 0.0 mm 15.5° 995.8 hPa 8.5 m/s 32.5 mm 15.8° 995.6 hPa 8.9 m/s 0.2 mm 15.2° 996.2 hPa 8.1 m/s 0.0 mm 16.8° 995.5 hPa 8.3 m/s
16:00 15.2° 995.0 hPa 9.0 m/s 2.5 mm 16.6° 996.0 hPa 9.1 m/s 34.5 mm 15.5° 994.8 hPa 9.6 m/s 0.2 mm 15.0° 996.5 hPa 7.8 m/s 0.0 mm 16.3° 995.4 hPa 7.5 m/s
19:00 14.8° 993.7 hPa 7.6 m/s 5.8 mm 16.1° 995.8 hPa 8.7 m/s 35.6 mm 14.4° 992.5 hPa 8.5 m/s 1.5 mm 15.0° 996.2 hPa 6.9 m/s 0.0 mm 14.9° 995.0 hPa 7.2 m/s
22:00 14.9° 993.6 hPa 6.1 m/s 9.7 mm 14.5° 995.5 hPa 6.8 m/s 38.7 mm 15.2° 992.7 hPa 6.0 m/s 1.5 mm 14.8° 996.5 hPa 5.3 m/s 0.0 mm 14.3° 995.0 hPa 5.4 m/s
 06:07     21:17    Daglengte: 15:10 Zaterdag 07 Aug
01:00 14.6° 994.1 hPa 5.3 m/s 7.7 mm 14.6° 995.3 hPa 5.7 m/s 43.5 mm 14.9° 993.1 hPa 5.3 m/s 3.3 mm 14.4° 996.5 hPa 3.8 m/s 0.0 mm 14.3° 994.8 hPa 4.2 m/s
04:00 14.4° 994.3 hPa 5.7 m/s 3.4 mm 14.1° 995.3 hPa 6.0 m/s 45.6 mm 14.9° 992.9 hPa 5.3 m/s 0.3 mm 14.3° 996.2 hPa 4.2 m/s 0.0 mm 14.3° 994.8 hPa 5.4 m/s
07:00 14.6° 995.0 hPa 6.8 m/s 3.5 mm 13.9° 995.5 hPa 7.1 m/s 45.9 mm 15.0° 993.1 hPa 6.6 m/s 1.3 mm 14.7° 996.3 hPa 5.6 m/s 0.0 mm 14.2° 994.7 hPa 6.1 m/s
10:00 14.7° 995.7 hPa 8.4 m/s 10.2 mm 14.6° 996.0 hPa 8.2 m/s 47.2 mm 15.4° 994.2 hPa 8.2 m/s 1.3 mm 16.0° 995.4 hPa 6.9 m/s
13:00 15.6° 996.2 hPa 9.9 m/s 13.0 mm 16.1° 996.6 hPa 10.5 m/s 50.2 mm 15.8° 995.2 hPa 9.3 m/s 1.0 mm 15.6° 996.3 hPa 7.3 m/s
16:00 14.3° 997.7 hPa 9.2 m/s 16.8 mm 14.1° 997.9 hPa 9.2 m/s 53.2 mm 15.1° 996.6 hPa 8.5 m/s 0.2 mm 16.5° 997.6 hPa 9.4 m/s
19:00 14.3° 999.2 hPa 8.5 m/s 14.7 mm 14.3° 999.4 hPa 8.9 m/s 57.1 mm 14.8° 997.6 hPa 8.5 m/s 0.7 mm 14.2° 999.0 hPa 8.3 m/s
22:00 13.6° 1000.7 hPa 7.7 m/s 10.8 mm 13.4° 1000.8 hPa 7.6 m/s 58.0 mm 14.5° 999.3 hPa 8.7 m/s 0.8 mm 14.0° 1000.7 hPa 7.9 m/s
 06:09     21:15    Daglengte: 15:06 Zondag 08 Aug
01:00 13.2° 1001.5 hPa 7.1 m/s 13.1 mm 12.9° 1001.6 hPa 7.1 m/s 58.2 mm 14.6° 1000.2 hPa 8.2 m/s 0.3 mm 13.5° 1002.0 hPa 7.6 m/s
04:00 13.1° 1001.9 hPa 5.9 m/s 20.2 mm 13.0° 1001.9 hPa 5.5 m/s 58.4 mm 14.0° 1000.9 hPa 8.0 m/s 1.1 mm 13.1° 1002.6 hPa 6.3 m/s
07:00 13.8° 1002.1 hPa 5.6 m/s 12.3 mm 14.1° 1001.7 hPa 5.3 m/s 58.9 mm 14.1° 1001.9 hPa 7.2 m/s 1.1 mm 12.7° 1003.6 hPa 5.2 m/s
10:00 14.8° 1003.3 hPa 6.7 m/s 5.7 mm 14.9° 1003.0 hPa 7.0 m/s 0.5 mm 13.8° 1005.3 hPa 4.8 m/s 26.6 mm
13:00 16.5° 1004.3 hPa 7.2 m/s 0.0 mm 16.4° 1004.0 hPa 7.3 m/s 0.0 mm 16.7° 1006.3 hPa 6.0 m/s 26.6 mm
16:00 17.8° 1007.7 hPa 5.3 m/s 26.7 mm 17.8° 1007.7 hPa 5.3 m/s 26.7 mm
19:00 16.8° 1008.7 hPa 4.8 m/s 26.9 mm 16.8° 1008.7 hPa 4.8 m/s 26.9 mm
22:00 13.2° 1010.6 hPa 2.6 m/s 27.1 mm 13.2° 1010.6 hPa 2.6 m/s 27.1 mm
 06:10     21:13    Daglengte: 15:03 Maandag 09 Aug
01:00 12.8° 1011.8 hPa 2.5 m/s 27.2 mm 12.8° 1011.8 hPa 2.5 m/s 27.2 mm
04:00 13.6° 1012.2 hPa 2.8 m/s 27.2 mm 13.6° 1012.2 hPa 2.8 m/s 27.2 mm
07:00 14.5° 1012.8 hPa 3.6 m/s 27.2 mm 14.5° 1012.8 hPa 3.6 m/s 27.2 mm
10:00 16.8° 1014.2 hPa 5.2 m/s 27.5 mm 16.8° 1014.2 hPa 5.2 m/s 27.5 mm
13:00 18.9° 1015.2 hPa 6.6 m/s 27.6 mm 18.9° 1015.2 hPa 6.6 m/s 27.6 mm
16:00 18.8° 1015.7 hPa 6.4 m/s 27.8 mm 18.8° 1015.7 hPa 6.4 m/s 27.8 mm
19:00 17.1° 1016.1 hPa 4.6 m/s 27.8 mm 17.1° 1016.1 hPa 4.6 m/s 27.8 mm
22:00 14.9° 1016.6 hPa 3.2 m/s 27.8 mm 14.9° 1016.6 hPa 3.2 m/s 27.8 mm
 06:12     21:11    Daglengte: 14:59 Dinsdag 10 Aug
01:00 14.5° 1016.3 hPa 3.2 m/s 27.8 mm 14.5° 1016.3 hPa 3.2 m/s 27.8 mm
04:00 15.3° 1015.6 hPa 3.4 m/s 27.8 mm 15.3° 1015.6 hPa 3.4 m/s 27.8 mm
07:00 14.9° 1014.5 hPa 3.7 m/s 27.8 mm 14.9° 1014.5 hPa 3.7 m/s 27.8 mm
10:00 17.8° 1014.1 hPa 5.2 m/s 28.2 mm 17.8° 1014.1 hPa 5.2 m/s 28.2 mm
13:00 20.7° 1012.8 hPa 5.4 m/s 28.5 mm 20.7° 1012.8 hPa 5.4 m/s 28.5 mm
16:00 19.8° 1012.0 hPa 6.0 m/s 28.6 mm 19.8° 1012.0 hPa 6.0 m/s 28.6 mm
19:00 14.3° 1012.8 hPa 4.5 m/s 33.6 mm 14.3° 1012.8 hPa 4.5 m/s 33.6 mm
22:00 12.1° 1015.2 hPa 3.4 m/s 33.7 mm 12.1° 1015.2 hPa 3.4 m/s 33.7 mm
 06:14     21:09    Daglengte: 14:55 Woensdag 11 Aug
01:00 10.8° 1016.0 hPa 2.7 m/s 33.7 mm 10.8° 1016.0 hPa 2.7 m/s 33.7 mm
04:00 10.6° 1016.4 hPa 2.4 m/s 33.8 mm 10.6° 1016.4 hPa 2.4 m/s 33.8 mm
07:00 10.2° 1017.5 hPa 2.3 m/s 33.9 mm 10.2° 1017.5 hPa 2.3 m/s 33.9 mm
10:00 14.9° 1018.6 hPa 4.4 m/s 34.0 mm 14.9° 1018.6 hPa 4.4 m/s 34.0 mm
13:00 17.0° 1019.4 hPa 6.2 m/s 34.1 mm 17.0° 1019.4 hPa 6.2 m/s 34.1 mm
16:00 17.9° 1019.9 hPa 6.1 m/s 34.1 mm 17.9° 1019.9 hPa 6.1 m/s 34.1 mm
19:00 16.4° 1020.9 hPa 4.9 m/s 34.2 mm 16.4° 1020.9 hPa 4.9 m/s 34.2 mm
22:00 13.9° 1022.0 hPa 2.9 m/s 34.2 mm 13.9° 1022.0 hPa 2.9 m/s 34.2 mm
 06:15     21:07    Daglengte: 14:52 Donderdag 12 Aug
01:00 11.6° 1022.0 hPa 2.7 m/s 34.2 mm 11.6° 1022.0 hPa 2.7 m/s 34.2 mm
04:00 10.6° 1022.0 hPa 2.4 m/s 34.2 mm 10.6° 1022.0 hPa 2.4 m/s 34.2 mm
07:00 10.7° 1022.1 hPa 2.3 m/s 34.2 mm 10.7° 1022.1 hPa 2.3 m/s 34.2 mm
10:00 17.4° 1022.0 hPa 4.1 m/s 34.2 mm 17.4° 1022.0 hPa 4.1 m/s 34.2 mm
13:00 21.0° 1021.6 hPa 4.6 m/s 34.2 mm 21.0° 1021.6 hPa 4.6 m/s 34.2 mm
19:00 20.1° 1020.1 hPa 3.7 m/s 34.2 mm 20.1° 1020.1 hPa 3.7 m/s 34.2 mm
 06:17     21:05    Daglengte: 14:48 Vrijdag 13 Aug
01:00 12.3° 1020.2 hPa 2.5 m/s 34.2 mm 12.3° 1020.2 hPa 2.5 m/s 34.2 mm
07:00 11.7° 1017.7 hPa 2.8 m/s 34.2 mm 11.7° 1017.7 hPa 2.8 m/s 34.2 mm
13:00 21.4° 1015.8 hPa 6.2 m/s 34.2 mm 21.4° 1015.8 hPa 6.2 m/s 34.2 mm
19:00 18.2° 1012.6 hPa 4.7 m/s 34.3 mm 18.2° 1012.6 hPa 4.7 m/s 34.3 mm
 06:19     21:03    Daglengte: 14:44 Zaterdag 14 Aug
01:00 14.6° 1013.4 hPa 2.2 m/s 36.3 mm 14.5° 1013.4 hPa 2.2 m/s 36.3 mm
07:00 11.0° 1013.5 hPa 2.2 m/s 36.4 mm 11.0° 1013.5 hPa 2.2 m/s 36.4 mm
13:00 17.4° 1012.6 hPa 6.7 m/s 37.6 mm 17.4° 1012.6 hPa 6.7 m/s 37.6 mm
19:00 15.8° 1012.1 hPa 5.6 m/s 38.4 mm 15.8° 1012.1 hPa 5.6 m/s 38.4 mm
 06:20     21:01    Daglengte: 14:41 Zondag 15 Aug
01:00 11.6° 1012.0 hPa 2.9 m/s 38.9 mm 11.6° 1012.0 hPa 2.9 m/s 38.9 mm
07:00 13.1° 1012.9 hPa 2.1 m/s 0.4 mm
13:00 17.6° 1012.7 hPa 3.5 m/s 1.1 mm
19:00 16.6° 1012.1 hPa 4.0 m/s 1.2 mm
 06:22     20:59    Daglengte: 14:37 Maandag 16 Aug
01:00 13.8° 1012.6 hPa 2.7 m/s 0.5 mm
07:00 13.8° 1011.8 hPa 2.4 m/s 0.3 mm
13:00 18.0° 1012.9 hPa 4.4 m/s 1.3 mm
19:00 16.9° 1013.6 hPa 3.9 m/s 0.5 mm
 06:24     20:57    Daglengte: 14:33 Dinsdag 17 Aug
01:00 13.8° 1014.3 hPa 2.4 m/s 0.7 mm
07:00 13.4° 1014.0 hPa 2.2 m/s 1.0 mm
13:00 18.0° 1014.8 hPa 3.9 m/s 0.9 mm
19:00 17.1° 1014.7 hPa 3.7 m/s 1.1 mm
 06:25     20:55    Daglengte: 14:30 Woensdag 18 Aug
01:00 13.9° 1015.7 hPa 2.0 m/s 0.5 mm
07:00 13.7° 1015.3 hPa 1.7 m/s 0.5 mm
13:00 18.1° 1016.1 hPa 3.1 m/s 0.5 mm
19:00 17.3° 1016.1 hPa 2.9 m/s 1.2 mm
 06:27     20:53    Daglengte: 14:26 Donderdag 19 Aug
01:00 13.6° 1016.8 hPa 1.5 m/s 0.4 mm
07:00 13.0° 1015.9 hPa 1.0 m/s 0.4 mm
13:00 18.4° 1015.9 hPa 1.8 m/s 0.6 mm